sat.trackr.live / text

‹ back to catalog

STARLINK-36995

NORAD 68143 · 2026-049B

PAYLOAD ACTIVE UNKNOWN

§ Identity

Operator
Country
US
Launch date
2026-03-13
Launch site
AFWTR
Launch vehicle
Mass (kg)
RCS (m²)

Purposes: comms

External: N2YO · Heavens-Above · Gunter

§ Orbital elements

Epoch: 2026-05-25T00:23:14.858016Z

Period
93.91 min
Inclination
97.2856°
Eccentricity
0.0000761
Mean motion
15.33446581 rev/d
Perigee alt
465.0 km
Apogee alt
466.1 km
Semi-major
6,843.7 km
B*
3.5668e-4
RAAN
166.6605°
Arg perigee
105.1718°
Mean anomaly
254.9608°
Rev number
1,134

§ Raw data

STARLINK-369951 68143U 26049B   26145.01614419  .00011458  00000+0  35668-3 0  99962 68143  97.2856 166.6605 0000761 105.1718 254.9608 15.33446581 11341

JSON: /api/v1/satellites/68143 · /tle

For live sub-satellite position, see the globe view (requires WebGL).

§ Visibility from observer

Set your observer location to see the next 7 days of passes ≥ 10°. The values pass through the URL so the page stays shareable.

No JS? Fill the form by hand. The geolocation button needs JavaScript.